| time (UTC) | temp F | wind direction | speed MPH | gust MPH | rain 1hr in | rain 24hr in | rain mn in | humidity % | barometer mb |
| 20260504231433 | 80 | 328 | 5.0 | 10.0 | 0.00 | 0.00 | 0.00 | 35 | 1000.1 |
| 20260504230930 | 80 | 282 | 5.0 | 7.0 | 0.00 | 0.00 | 0.00 | 36 | 1000.1 |
| 20260504230426 | 79 | 345 | 4.0 | 11.0 | 0.00 | 0.00 | 0.00 | 35 | 1000.2 |
| 20260504225926 | 79 | 330 | 6.0 | 11.0 | 0.00 | 0.00 | 0.00 | 35 | 1000.3 |
| 20260504225422 | 77 | 321 | 6.0 | 8.0 | 0.00 | 0.00 | 0.00 | 38 | 1000.6 |
| 20260504224920 | 78 | 312 | 8.0 | 13.0 | 0.00 | 0.00 | 0.00 | 37 | 1000.4 |
| 20260504224416 | 79 | 349 | 4.0 | 6.0 | 0.00 | 0.00 | 0.00 | 34 | 1000.1 |
| 20260504223913 | 79 | 289 | 4.0 | 16.0 | 0.00 | 0.00 | 0.00 | 33 | 1000.1 |
| 20260504223408 | 79 | 290 | 6.0 | 11.0 | 0.00 | 0.00 | 0.00 | 35 | 1000.2 |
| 20260504222905 | 80 | 293 | 11.0 | 16.0 | 0.00 | 0.00 | 0.00 | 34 | 1000.1 |
| 20260504222402 | 80 | 317 | 10.0 | 13.0 | 0.00 | 0.00 | 0.00 | 36 | 1000.1 |
| 20260504221900 | 80 | 6 | 2.0 | 9.0 | 0.00 | 0.00 | 0.00 | 36 | 1000.0 |
| 20260504221356 | 79 | 237 | 2.0 | 13.0 | 0.00 | 0.00 | 0.00 | 40 | 1000.1 |
| 20260504220854 | 80 | 308 | 7.0 | 13.0 | 0.00 | 0.00 | 0.00 | 35 | 999.8 |
| 20260504220350 | 81 | 1 | 11.0 | 13.0 | 0.00 | 0.00 | 0.00 | 34 | 999.9 |
| 20260504215848 | 82 | 292 | 7.0 | 10.0 | 0.00 | 0.00 | 0.00 | 34 | 1000.0 |
| 20260504215344 | 82 | 326 | 11.0 | 15.0 | 0.00 | 0.00 | 0.00 | 34 | 999.8 |
| 20260504214840 | 82 | 75 | 1.0 | 4.0 | 0.00 | 0.00 | 0.00 | 38 | 999.7 |
| 20260504214337 | 81 | 324 | 2.0 | 8.0 | 0.00 | 0.00 | 0.00 | 35 | 1000.1 |
| 20260504213834 | 79 | 321 | 4.0 | 8.0 | 0.00 | 0.00 | 0.00 | 39 | 1000.0 |
| 20260504213330 | 80 | 317 | 6.0 | 14.0 | 0.00 | 0.00 | 0.00 | 38 | 999.9 |
| 20260504212827 | 82 | 295 | 6.0 | 10.0 | 0.00 | 0.00 | 0.00 | 41 | 999.9 |
| 20260504212323 | 83 | 342 | 4.0 | 9.0 | 0.00 | 0.00 | 0.00 | 36 | 999.9 |
| 20260504211821 | 82 | 19 | 2.0 | 9.0 | 0.00 | 0.00 | 0.00 | 39 | 999.9 |
| 20260504211317 | 80 | 40 | 4.0 | 8.0 | 0.00 | 0.00 | 0.00 | 37 | 999.9 |
| 20260504210815 | 79 | 213 | 2.0 | 4.0 | 0.00 | 0.00 | 0.00 | 38 | 1000.0 |
| 20260504210312 | 80 | 300 | 7.0 | 9.0 | 0.00 | 0.00 | 0.00 | 37 | 1000.0 |
| 20260504205809 | 81 | 320 | 4.0 | 7.0 | 0.00 | 0.00 | 0.00 | 37 | 999.8 |
| 20260504205306 | 81 | 271 | 6.0 | 10.0 | 0.00 | 0.00 | 0.00 | 38 | 1000.0 |
| 20260504204804 | 83 | 304 | 9.0 | 13.0 | 0.00 | 0.00 | 0.00 | 36 | 1000.1 |
| 20260504204303 | 82 | 62 | 1.0 | 4.0 | 0.00 | 0.00 | 0.00 | 36 | 1000.0 |
| 20260504203802 | 80 | 69 | 2.0 | 6.0 | 0.00 | 0.00 | 0.00 | 37 | 1000.3 |
| 20260504203258 | 81 | 66 | 2.0 | 6.0 | 0.00 | 0.00 | 0.00 | 37 | 1000.2 |
| 20260504202758 | 82 | 61 | 3.0 | 4.0 | 0.00 | 0.00 | 0.00 | 36 | 1000.1 |
| 20260504202256 | 83 | 35 | 2.0 | 3.0 | 0.00 | 0.00 | 0.00 | 38 | 1000.3 |
| 20260504201753 | 82 | 140 | 4.0 | 7.0 | 0.00 | 0.00 | 0.00 | 38 | 1000.1 |
| 20260504201250 | 83 | 76 | 2.0 | 6.0 | 0.00 | 0.00 | 0.00 | 39 | 1000.2 |
| 20260504200748 | 83 | 92 | 0.0 | 3.0 | 0.00 | 0.00 | 0.00 | 39 | 1000.3 |
| 20260504200243 | 82 | 15 | 2.0 | 6.0 | 0.00 | 0.00 | 0.00 | 38 | 1000.3 |
| 20260504195740 | 83 | 52 | 1.0 | 4.0 | 0.00 | 0.00 | 0.00 | 40 | 1000.6 |
| 20260504195236 | 82 | 106 | 1.0 | 2.0 | 0.00 | 0.00 | 0.00 | 40 | 1000.3 |
| 20260504194734 | 82 | 29 | 1.0 | 6.0 | 0.00 | 0.00 | 0.00 | 38 | 1000.6 |
| 20260504194229 | 82 | 54 | 1.0 | 3.0 | 0.00 | 0.00 | 0.00 | 40 | 1000.5 |
| 20260504193726 | 81 | 66 | 1.0 | 3.0 | 0.00 | 0.00 | 0.00 | 42 | 1000.6 |
| 20260504193224 | 82 | 111 | 2.0 | 4.0 | 0.00 | 0.00 | 0.00 | 41 | 1000.6 |
| 20260504192722 | 82 | 57 | 2.0 | 4.0 | 0.00 | 0.00 | 0.00 | 43 | 1000.7 |
| 20260504192220 | 82 | 21 | 1.0 | 6.0 | 0.00 | 0.00 | 0.00 | 41 | 1000.5 |
| 20260504191718 | 82 | 292 | 1.0 | 6.0 | 0.00 | 0.00 | 0.00 | 40 | 1000.7 |
| 20260504191215 | 81 | 77 | 1.0 | 7.0 | 0.00 | 0.00 | 0.00 | 43 | 1000.8 |
| 20260504190710 | 81 | 37 | 2.0 | 3.0 | 0.00 | 0.00 | 0.00 | 43 | 1000.9 |
| 20260504190206 | 81 | 28 | 4.0 | 4.0 | 0.00 | 0.00 | 0.00 | 42 | 1000.9 |
| 20260504185703 | 81 | 358 | 2.0 | 6.0 | 0.00 | 0.00 | 0.00 | 42 | 1000.8 |
| 20260504185200 | 80 | 20 | 4.0 | 6.0 | 0.00 | 0.00 | 0.00 | 43 | 1000.9 |
| 20260504184656 | 80 | 53 | 2.0 | 4.0 | 0.00 | 0.00 | 0.00 | 46 | 1001.0 |
| 20260504184151 | 80 | 196 | 1.0 | 4.0 | 0.00 | 0.00 | 0.00 | 43 | 1000.9 |
| 20260504183648 | 80 | 69 | 1.0 | 7.0 | 0.00 | 0.00 | 0.00 | 46 | 1000.9 |
| 20260504183145 | 80 | 95 | 2.0 | 4.0 | 0.00 | 0.00 | 0.00 | 45 | 1001.0 |
| 20260504182643 | 79 | 50 | 1.0 | 4.0 | 0.00 | 0.00 | 0.00 | 44 | 1001.0 |
| 20260504182140 | 80 | 89 | 3.0 | 6.0 | 0.00 | 0.00 | 0.00 | 44 | 1001.1 |
| 20260504181638 | 79 | 24 | 3.0 | 7.0 | 0.00 | 0.00 | 0.00 | 44 | 1000.9 |
| 20260504181135 | 79 | 253 | 2.0 | 3.0 | 0.00 | 0.00 | 0.00 | 45 | 1001.0 |
| 20260504180634 | 79 | 214 | 2.0 | 4.0 | 0.00 | 0.00 | 0.00 | 46 | 1001.1 |
| 20260504180132 | 79 | 48 | 1.0 | 4.0 | 0.00 | 0.00 | 0.00 | 51 | 1001.0 |
| 20260504175629 | 78 | 64 | 1.0 | 3.0 | 0.00 | 0.00 | 0.00 | 48 | 1001.1 |
| 20260504175126 | 79 | 70 | 1.0 | 3.0 | 0.00 | 0.00 | 0.00 | 48 | 1001.2 |
| 20260504174624 | 79 | 187 | 1.0 | 4.0 | 0.00 | 0.00 | 0.00 | 47 | 1001.2 |
| 20260504174120 | 80 | 41 | 3.0 | 4.0 | 0.00 | 0.00 | 0.00 | 47 | 1001.0 |
| 20260504173618 | 78 | 319 | 1.0 | 3.0 | 0.00 | 0.00 | 0.00 | 47 | 1001.1 |
| 20260504173115 | 78 | 43 | 1.0 | 4.0 | 0.00 | 0.00 | 0.00 | 52 | 1001.3 |
| 20260504172611 | 78 | 105 | 2.0 | 4.0 | 0.00 | 0.00 | 0.00 | 45 | 1001.2 |
| 20260504172108 | 77 | 72 | 1.0 | 4.0 | 0.00 | 0.00 | 0.00 | 48 | 1001.4 |
| 20260504171604 | 77 | 41 | 2.0 | 6.0 | 0.00 | 0.00 | 0.00 | 47 | 1001.2 |
| 20260504171102 | 77 | 40 | 2.0 | 3.0 | 0.00 | 0.00 | 0.00 | 49 | 1001.3 |
| 20260504170557 | 77 | 67 | 1.0 | 4.0 | 0.00 | 0.00 | 0.00 | 48 | 1001.2 |
| 20260504150941 | 72 | 203 | 3.0 | 6.0 | 0.00 | 0.00 | 0.00 | 53 | 1001.8 |
| 20260504150438 | 71 | 49 | 3.0 | 7.0 | 0.00 | 0.00 | 0.00 | 52 | 1001.8 |
| 20260504140904 | 68 | 54 | 2.0 | 6.0 | 0.00 | 0.00 | 0.00 | 57 | 1002.3 |
| 20260504140400 | 68 | 155 | 2.0 | 3.0 | 0.00 | 0.00 | 0.00 | 56 | 1002.1 |
| 20260504130325 | 62 | 203 | 2.0 | 4.0 | 0.00 | 0.00 | 0.00 | 65 | 1002.3 |
| 20260504120249 | 57 | 134 | 2.0 | 4.0 | 0.00 | 0.00 | 0.00 | 71 | 1002.6 |
| 20260504110716 | 55 | 132 | 2.0 | 4.0 | 0.00 | 0.00 | 0.00 | 68 | 1002.7 |
| 20260504110212 | 56 | 132 | 2.0 | 6.0 | 0.00 | 0.00 | 0.00 | 68 | 1002.7 |
| 20260504100136 | 56 | 110 | 3.0 | 6.0 | 0.00 | 0.00 | 0.00 | 66 | 1003.6 |
| 20260504081529 | 55 | 95 | 2.0 | 3.0 | 0.00 | 0.00 | 0.00 | 66 | 1005.0 |
| 20260504081025 | 55 | 89 | 1.0 | 2.0 | 0.00 | 0.00 | 0.00 | 68 | 1005.3 |
| 20260504080522 | 55 | 89 | 0.0 | 1.0 | 0.00 | 0.00 | 0.00 | 68 | 1005.2 |
| 20260504050334 | 59 | 26 | 0.0 | 0.0 | 0.00 | 0.00 | 0.00 | 54 | 1006.9 |
| 20260504045831 | 57 | 26 | 0.0 | 0.0 | 0.00 | 0.00 | 0.00 | 55 | 1006.7 |
| 20260504045326 | 56 | 26 | 0.0 | 0.0 | 0.00 | 0.00 | 0.00 | 57 | 1006.8 |
| 20260504044823 | 57 | 26 | 0.0 | 0.0 | 0.00 | 0.00 | 0.00 | 59 | 1006.9 |
| 20260504044321 | 57 | 25 | 0.0 | 0.0 | 0.00 | 0.00 | 0.00 | 58 | 1007.0 |
| 20260504043818 | 58 | 25 | 0.0 | 0.0 | 0.00 | 0.00 | 0.00 | 61 | 1006.9 |
| 20260504043315 | 57 | 25 | 0.0 | 0.0 | 0.00 | 0.00 | 0.00 | 58 | 1007.1 |
| 20260504042813 | 57 | 25 | 0.0 | 0.0 | 0.00 | 0.00 | 0.00 | 59 | 1006.8 |
| 20260504042309 | 57 | 25 | 0.0 | 0.0 | 0.00 | 0.00 | 0.00 | 63 | 1007.0 |
| 20260504041805 | 58 | 25 | 0.0 | 0.0 | 0.00 | 0.00 | 0.00 | 60 | 1007.0 |
| 20260504041301 | 58 | 25 | 0.0 | 0.0 | 0.00 | 0.00 | 0.00 | 58 | 1007.1 |
| 20260504040758 | 59 | 25 | 0.0 | 0.0 | 0.00 | 0.00 | 0.00 | 55 | 1007.1 |
| 20260504040255 | 59 | 25 | 0.0 | 0.0 | 0.00 | 0.00 | 0.00 | 55 | 1007.2 |
| 20260504035751 | 59 | 25 | 0.0 | 0.0 | 0.00 | 0.00 | 0.00 | 55 | 1007.5 |
| 20260504035248 | 59 | 25 | 0.0 | 0.0 | 0.00 | 0.00 | 0.00 | 56 | 1007.3 |
| 20260504034745 | 59 | 25 | 0.0 | 1.0 | 0.00 | 0.00 | 0.00 | 57 | 1007.7 |
| 20260504034243 | 58 | 24 | 0.0 | 0.0 | 0.00 | 0.00 | 0.00 | 60 | 1007.6 |
| 20260504033740 | 57 | 24 | 0.0 | 1.0 | 0.00 | 0.00 | 0.00 | 65 | 1007.7 |
| 20260504033238 | 57 | 22 | 0.0 | 1.0 | 0.00 | 0.00 | 0.00 | 62 | 1007.5 |
| 20260504032734 | 58 | 22 | 0.0 | 0.0 | 0.00 | 0.00 | 0.00 | 60 | 1007.5 |
| 20260504032231 | 59 | 21 | 0.0 | 1.0 | 0.00 | 0.00 | 0.00 | 57 | 1007.6 |
| 20260504031728 | 61 | 19 | 0.0 | 0.0 | 0.00 | 0.00 | 0.00 | 51 | 1007.5 |
| 20260504031226 | 61 | 19 | 1.0 | 1.0 | 0.00 | 0.00 | 0.00 | 49 | 1007.7 |
| 20260504030721 | 63 | 19 | 0.0 | 0.0 | 0.00 | 0.00 | 0.00 | 46 | 1007.8 |
| 20260504030219 | 63 | 19 | 0.0 | 0.0 | 0.00 | 0.00 | 0.00 | 44 | 1007.8 |
| 20260504025715 | 64 | 19 | 0.0 | 0.0 | 0.00 | 0.00 | 0.00 | 44 | 1008.0 |
| 20260504025212 | 64 | 19 | 0.0 | 0.0 | 0.00 | 0.00 | 0.00 | 43 | 1007.9 |
| 20260504024709 | 65 | 19 | 0.0 | 1.0 | 0.00 | 0.00 | 0.00 | 43 | 1007.9 |
| 20260504024205 | 65 | 19 | 0.0 | 1.0 | 0.00 | 0.00 | 0.00 | 42 | 1007.9 |
| 20260504023702 | 65 | 19 | 0.0 | 0.0 | 0.00 | 0.00 | 0.00 | 42 | 1007.9 |
| 20260504023158 | 66 | 19 | 0.0 | 0.0 | 0.00 | 0.00 | 0.00 | 41 | 1007.9 |
| 20260504022654 | 67 | 19 | 1.0 | 1.0 | 0.00 | 0.00 | 0.00 | 39 | 1007.8 |
| 20260504022150 | 66 | 19 | 1.0 | 1.0 | 0.00 | 0.00 | 0.00 | 41 | 1007.7 |
| 20260504021649 | 64 | 19 | 0.0 | 1.0 | 0.00 | 0.00 | 0.00 | 43 | 1007.9 |
| 20260504021145 | 64 | 19 | 0.0 | 1.0 | 0.00 | 0.00 | 0.00 | 44 | 1007.9 |
| 20260504020642 | 64 | 19 | 0.0 | 0.0 | 0.00 | 0.00 | 0.00 | 45 | 1007.9 |
| 20260504020138 | 64 | 19 | 0.0 | 0.0 | 0.00 | 0.00 | 0.00 | 44 | 1007.8 |
| 20260504015635 | 64 | 18 | 0.0 | 0.0 | 0.00 | 0.00 | 0.00 | 44 | 1008.0 |
| 20260504015131 | 64 | 18 | 0.0 | 0.0 | 0.00 | 0.00 | 0.00 | 44 | 1007.9 |
| 20260504014627 | 65 | 18 | 0.0 | 0.0 | 0.00 | 0.00 | 0.00 | 42 | 1008.0 |
| 20260504014124 | 65 | 18 | 0.0 | 1.0 | 0.00 | 0.00 | 0.00 | 44 | 1008.3 |
| 20260504013622 | 66 | 18 | 0.0 | 1.0 | 0.00 | 0.00 | 0.00 | 45 | 1008.1 |
| 20260504013119 | 65 | 17 | 0.0 | 1.0 | 0.00 | 0.00 | 0.00 | 43 | 1008.1 |
| 20260504012616 | 66 | 17 | 0.0 | 0.0 | 0.00 | 0.00 | 0.00 | 42 | 1007.9 |
| 20260504012114 | 65 | 16 | 2.0 | 2.0 | 0.00 | 0.00 | 0.00 | 41 | 1007.9 |
| 20260504011611 | 65 | 15 | 0.0 | 0.0 | 0.00 | 0.00 | 0.00 | 45 | 1007.7 |
| 20260504011107 | 66 | 13 | 0.0 | 0.0 | 0.00 | 0.00 | 0.00 | 43 | 1007.8 |
| 20260504010602 | 66 | 359 | 1.0 | 1.0 | 0.00 | 0.00 | 0.00 | 43 | 1007.9 |
| 20260504010059 | 67 | 84 | 0.0 | 0.0 | 0.00 | 0.00 | 0.00 | 42 | 1008.0 |
| 20260504005555 | 67 | 83 | 0.0 | 0.0 | 0.00 | 0.00 | 0.00 | 42 | 1008.1 |
| 20260504005053 | 68 | 78 | 0.0 | 0.0 | 0.00 | 0.00 | 0.00 | 40 | 1008.2 |
| 20260504004551 | 68 | 4 | 0.0 | 0.0 | 0.00 | 0.00 | 0.00 | 40 | 1008.0 |
| 20260504004047 | 69 | 335 | 0.0 | 0.0 | 0.00 | 0.00 | 0.00 | 39 | 1008.0 |
| 20260504003543 | 69 | 321 | 0.0 | 1.0 | 0.00 | 0.00 | 0.00 | 39 | 1007.7 |
| 20260504003040 | 70 | 311 | 1.0 | 3.0 | 0.00 | 0.00 | 0.00 | 39 | 1007.9 |
| 20260504002537 | 69 | 301 | 3.0 | 4.0 | 0.00 | 0.00 | 0.00 | 37 | 1007.9 |
| 20260504002035 | 69 | 302 | 3.0 | 4.0 | 0.00 | 0.00 | 0.00 | 38 | 1008.0 |
| 20260504001532 | 70 | 315 | 3.0 | 6.0 | 0.00 | 0.00 | 0.00 | 39 | 1008.1 |
| 20260504001028 | 70 | 297 | 3.0 | 4.0 | 0.00 | 0.00 | 0.00 | 39 | 1008.3 |
| 20260504000526 | 70 | 300 | 3.0 | 4.0 | 0.00 | 0.00 | 0.00 | 41 | 1008.4 |
| 20260504000023 | 70 | 312 | 2.0 | 4.0 | 0.00 | 0.00 | 0.00 | 40 | 1008.3 |
| 20260503235521 | 70 | 343 | 1.0 | 2.0 | 0.00 | 0.00 | 0.00 | 42 | 1008.4 |
| 20260503235018 | 70 | 339 | 0.0 | 4.0 | 0.00 | 0.00 | 0.00 | 40 | 1008.3 |
| 20260503234515 | 70 | 301 | 3.0 | 4.0 | 0.00 | 0.00 | 0.00 | 40 | 1008.4 |
| 20260503234014 | 71 | 287 | 3.0 | 6.0 | 0.00 | 0.00 | 0.00 | 39 | 1008.2 |
| 20260503233510 | 70 | 314 | 1.0 | 7.0 | 0.00 | 0.00 | 0.00 | 41 | 1008.5 |
| 20260503233006 | 70 | 286 | 5.0 | 7.0 | 0.00 | 0.00 | 0.00 | 39 | 1008.4 |
| 20260503232503 | 72 | 291 | 5.0 | 7.0 | 0.00 | 0.00 | 0.00 | 38 | 1008.4 |
| 20260503232001 | 71 | 324 | 2.0 | 4.0 | 0.00 | 0.00 | 0.00 | 36 | 1008.3 |